Regional Weather Roundup
Issued by NWS

Home | Current Version | Previous Version | Graphics & Text | Print | Product List | Glossary On
Versions: 1 2 3 4 5 6 7 8 9 10 11 12 13 14 15 16 17 18 19 20 21 22 23 24 25 26 27 28 29 30 31 32 33 34 35 36 37 38 39 40 41 42 43 44 45 46 47 48 49 50
000
ASUS43 KOAX 020202
RWRNE

WEATHER ROUNDUP FOR NEBRASKA
NATIONAL WEATHER SERVICE OMAHA NE
900 PM CDT WED APR 01 2015

NOTES: SATELLITE DATA IS BEING USED TO AUGMENT CLOUD COVER ABOVE
       12000 FEET.
       "FAIR" INDICATES FEW OR NO CLOUDS BELOW 12,000 FEET WITH NO
       SIGNIFICANT WEATHER AND/OR OBSTRUCTIONS TO VISIBILITY.

  * THESE STATIONS DO NOT REPORT WEATHER SUCH AS RAIN...SNOW OR FOG.

NEZ001>004-019>022-054>056-020300-
NEBRASKA PANHANDLE

CITY           SKY/WX    TMP DP  RH WIND       PRES   REMARKS
SCOTTSBLUFF    CLOUDY    47  26  44 N13       29.85R
ALLIANCE       CLOUDY    48  27  44 N17       29.84R
CHADRON        MOCLDY    47  27  45 NW6       29.86R
SIDNEY         CLOUDY    51  31  46 N14G22    29.85R
$$

NEZ057>060-069>072-079>082-020300-
SOUTHWEST NEBRASKA

CITY           SKY/WX    TMP DP  RH WIND       PRES   REMARKS
NORTH PLATTE   MOCLDY    60  36  40 N18G28    29.68R
IMPERIAL       LGT RAIN  60  42  51 NW25G33   29.74R
MCCOOK         MOCLDY    67  36  31 NW20G28   29.66R
$$

NEZ005>010-023>029-035>040-094-020300-
NORTH CENTRAL NEBRASKA

CITY           SKY/WX    TMP DP  RH WIND       PRES   REMARKS
VALENTINE      CLOUDY    54  23  30 NW21G28   29.78R
AINSWORTH      CLOUDY    58  26  29 N29G36    29.75R
BROKEN BOW     PTCLDY    60  37  42 N21G30    29.65R
ORD            PTCLDY    62  34  35 N17G26    29.65R
$$

NEZ041-046>049-061>064-073>077-083>087-020300-
SOUTH CENTRAL NEBRASKA

CITY           SKY/WX    TMP DP  RH WIND       PRES   REMARKS
GRAND ISLAND   CLOUDY    60  45  57 N21G30    29.59R
HASTINGS       TSTM      60  50  69 N25G37    29.60R
KEARNEY *      MOCLDY    63  39  42 N16G25    29.61R
YORK           CLOUDY    64  45  48 N26G40    29.53R
$$

NEZ011>018-030>034-042>045-020300-
NORTHEAST NEBRASKA

CITY           SKY/WX    TMP DP  RH WIND       PRES   REMARKS
NORFOLK        LGT RAIN  62  45  53 N13       29.66R
BLAIR          PTCLDY    75  50  41 S20G25    29.56R
COLUMBUS *     CLOUDY    57  46  67 N23       29.59F
FREMONT        MOCLDY    71  44  37 N17G30    29.57R
TEKAMAH        CLOUDY    71  45  39 N32G46    29.60R THUNDER HAZE
$$

NEZ050>053-065>068-078-088>093-020300-
SOUTHEAST NEBRASKA

CITY           SKY/WX    TMP DP  RH WIND       PRES   REMARKS
LINCOLN        PTCLDY    74  51  44 S21G29    29.54R
OMAHA EPPLEY   MOCLDY    75  52  44 S24G36    29.55R
FALLS CITY     CLEAR     65  55  70 SE17G26   29.62S
$$

NEZ044-045-051>053-067-020300-
OMAHA AREA

CITY           SKY/WX    TMP DP  RH WIND       PRES   REMARKS
OMAHA EPPLEY   MOCLDY    75  52  44 S24G36    29.55R
BLAIR          PTCLDY    75  50  41 S20G25    29.56R
FREMONT        MOCLDY    71  44  37 N17G30    29.57R
OFFUTT AFB     PTCLDY    73  52  48 SE20G33   29.56R
$$


USA.gov is the U.S. government's official web portal to all federal, state and local government web resources and services.